Location: Grand Mazuras
(45.9128°N, 1.7636°E)
Time: 04:17:22
(UTC+00:00)

Cosmos 1812 Rocket - Pass Details

Date: 18 April 2021
Orbit: 606 x 631 km, 82.5° (Epoch: 10 May)

Event Time Altitude Azimuth Distance (km) Brightness Sun altitude
Exits shadow 20:47:57 28° 187° (S) 1,183 4.7 -19.6°
Maximum altitude 20:50:17 89° 100° (E) 634 3.5 -19.9°
Drops below altitude 10° 20:54:46 10° 9° (N) 2,020 6.6 -20.5°
Sets 20:57:01 0° 10° (N) 2,934 7.5 -20.7°
